#datetime,building,power
2024-03-18T00:00:00,axn,33.51
2024-03-18T00:01:00,axn,33.09
2024-03-18T00:02:00,axn,34.71
2024-03-18T00:03:00,axn,34.57
2024-03-18T00:04:00,axn,34.62
2024-03-18T00:05:00,axn,35.86
2024-03-18T00:06:00,axn,35.51
2024-03-18T00:07:00,axn,34.15
2024-03-18T00:08:00,axn,34.61
2024-03-18T00:09:00,axn,35.92
2024-03-18T00:10:00,axn,34.73
2024-03-18T00:11:00,axn,35.38
2024-03-18T00:12:00,axn,35.05
2024-03-18T00:13:00,axn,35.20
2024-03-18T00:14:00,axn,35.09
2024-03-18T00:15:00,axn,35.27
2024-03-18T00:16:00,axn,35.29
2024-03-18T00:17:00,axn,35.31
2024-03-18T00:18:00,axn,35.43
2024-03-18T00:19:00,axn,35.55
2024-03-18T00:20:00,axn,36.25
2024-03-18T00:21:00,axn,34.82
2024-03-18T00:22:00,axn,34.21
2024-03-18T00:23:00,axn,33.89
2024-03-18T00:24:00,axn,33.99
2024-03-18T00:25:00,axn,34.44
2024-03-18T00:26:00,axn,34.45
2024-03-18T00:27:00,axn,34.45
2024-03-18T00:28:00,axn,34.15
2024-03-18T00:29:00,axn,33.54
2024-03-18T00:30:00,axn,33.58
2024-03-18T00:31:00,axn,34.25
2024-03-18T00:32:00,axn,34.15
2024-03-18T00:33:00,axn,33.10
2024-03-18T00:34:00,axn,32.77
2024-03-18T00:35:00,axn,32.91
2024-03-18T00:36:00,axn,32.96
2024-03-18T00:37:00,axn,33.40
2024-03-18T00:38:00,axn,33.52
2024-03-18T00:39:00,axn,33.48
2024-03-18T00:40:00,axn,33.33
2024-03-18T00:41:00,axn,34.20
2024-03-18T00:42:00,axn,33.44
2024-03-18T00:43:00,axn,35.17
2024-03-18T00:44:00,axn,34.11
2024-03-18T00:45:00,axn,34.72
2024-03-18T00:46:00,axn,33.06
2024-03-18T00:47:00,axn,33.19
2024-03-18T00:48:00,axn,34.15
2024-03-18T00:49:00,axn,39.62
2024-03-18T00:50:00,axn,34.96
2024-03-18T00:51:00,axn,33.51
2024-03-18T00:52:00,axn,33.52
2024-03-18T00:53:00,axn,33.24
2024-03-18T00:54:00,axn,34.04
2024-03-18T00:55:00,axn,33.82
2024-03-18T00:56:00,axn,33.63
2024-03-18T00:57:00,axn,32.97
2024-03-18T00:58:00,axn,34.21
2024-03-18T00:59:00,axn,33.85
2024-03-18T01:00:00,axn,33.98
2024-03-18T01:01:00,axn,33.58
2024-03-18T01:02:00,axn,34.80
2024-03-18T01:03:00,axn,33.80
2024-03-18T01:04:00,axn,33.65
2024-03-18T01:05:00,axn,33.38
2024-03-18T01:06:00,axn,34.70
2024-03-18T01:07:00,axn,33.73
2024-03-18T01:08:00,axn,35.24
2024-03-18T01:09:00,axn,33.98
2024-03-18T01:10:00,axn,34.48
2024-03-18T01:11:00,axn,34.22
2024-03-18T01:12:00,axn,33.88
2024-03-18T01:13:00,axn,35.70
2024-03-18T01:14:00,axn,33.63
2024-03-18T01:15:00,axn,34.06
2024-03-18T01:16:00,axn,34.61
2024-03-18T01:17:00,axn,33.05
2024-03-18T01:18:00,axn,34.12
2024-03-18T01:19:00,axn,34.67
2024-03-18T01:20:00,axn,33.35
2024-03-18T01:21:00,axn,34.60
2024-03-18T01:22:00,axn,35.33
2024-03-18T01:23:00,axn,34.91
2024-03-18T01:24:00,axn,35.38
2024-03-18T01:25:00,axn,35.43
2024-03-18T01:26:00,axn,35.16
2024-03-18T01:27:00,axn,35.93
2024-03-18T01:28:00,axn,35.67
2024-03-18T01:29:00,axn,34.59
2024-03-18T01:30:00,axn,35.75
2024-03-18T01:31:00,axn,34.52
2024-03-18T01:32:00,axn,36.48
2024-03-18T01:33:00,axn,36.88
2024-03-18T01:34:00,axn,36.68
2024-03-18T01:35:00,axn,35.52
2024-03-18T01:36:00,axn,34.53
2024-03-18T01:37:00,axn,35.80
2024-03-18T01:38:00,axn,35.07
2024-03-18T01:39:00,axn,37.34
2024-03-18T01:40:00,axn,36.17
2024-03-18T01:41:00,axn,34.10
2024-03-18T01:42:00,axn,34.22
2024-03-18T01:43:00,axn,35.36
2024-03-18T01:44:00,axn,37.19
2024-03-18T01:45:00,axn,34.05
2024-03-18T01:46:00,axn,34.37
2024-03-18T01:47:00,axn,34.77
2024-03-18T01:48:00,axn,35.81
2024-03-18T01:49:00,axn,34.65
2024-03-18T01:50:00,axn,35.15
2024-03-18T01:51:00,axn,34.71
2024-03-18T01:52:00,axn,34.60
2024-03-18T01:53:00,axn,33.64
2024-03-18T01:54:00,axn,32.46
2024-03-18T01:55:00,axn,35.21
2024-03-18T01:56:00,axn,33.13
2024-03-18T01:57:00,axn,32.75
2024-03-18T01:58:00,axn,32.40
2024-03-18T01:59:00,axn,34.86
2024-03-18T02:00:00,axn,32.41
2024-03-18T02:01:00,axn,33.15
2024-03-18T02:02:00,axn,32.38
2024-03-18T02:03:00,axn,33.01
2024-03-18T02:04:00,axn,32.29
2024-03-18T02:05:00,axn,32.00
2024-03-18T02:06:00,axn,31.85
2024-03-18T02:07:00,axn,33.43
2024-03-18T02:08:00,axn,32.63
2024-03-18T02:09:00,axn,31.46
2024-03-18T02:10:00,axn,31.66
2024-03-18T02:11:00,axn,31.73
2024-03-18T02:12:00,axn,31.66
2024-03-18T02:13:00,axn,32.90
2024-03-18T02:14:00,axn,32.32
2024-03-18T02:15:00,axn,32.37
2024-03-18T02:16:00,axn,33.59
2024-03-18T02:17:00,axn,31.54
2024-03-18T02:18:00,axn,31.71
2024-03-18T02:19:00,axn,33.66
2024-03-18T02:20:00,axn,33.95
2024-03-18T02:21:00,axn,32.27
2024-03-18T02:22:00,axn,33.19
2024-03-18T02:23:00,axn,33.10
2024-03-18T02:24:00,axn,33.07
2024-03-18T02:25:00,axn,29.06
2024-03-18T02:26:00,axn,26.01
2024-03-18T02:27:00,axn,25.89
2024-03-18T02:28:00,axn,25.93
2024-03-18T02:29:00,axn,26.03
2024-03-18T02:30:00,axn,26.47
2024-03-18T02:31:00,axn,25.90
2024-03-18T02:32:00,axn,25.99
2024-03-18T02:33:00,axn,25.94
2024-03-18T02:34:00,axn,25.93
2024-03-18T02:35:00,axn,26.12
2024-03-18T02:36:00,axn,25.96
2024-03-18T02:37:00,axn,26.31
2024-03-18T02:38:00,axn,26.00
2024-03-18T02:39:00,axn,25.91
2024-03-18T02:40:00,axn,26.18
2024-03-18T02:41:00,axn,25.91
2024-03-18T02:42:00,axn,25.81
2024-03-18T02:43:00,axn,25.82
2024-03-18T02:44:00,axn,25.75
2024-03-18T02:45:00,axn,26.02
2024-03-18T02:46:00,axn,25.85
2024-03-18T02:47:00,axn,26.13
2024-03-18T02:48:00,axn,25.88
2024-03-18T02:49:00,axn,25.90
2024-03-18T02:50:00,axn,25.76
2024-03-18T02:51:00,axn,25.75
2024-03-18T02:52:00,axn,26.08
2024-03-18T02:53:00,axn,26.05
2024-03-18T02:54:00,axn,27.40
2024-03-18T02:55:00,axn,26.11
2024-03-18T02:56:00,axn,26.14
2024-03-18T02:57:00,axn,26.17
2024-03-18T02:58:00,axn,26.06
2024-03-18T02:59:00,axn,25.97
2024-03-18T03:00:00,axn,25.97
2024-03-18T03:01:00,axn,26.47
2024-03-18T03:02:00,axn,26.28
2024-03-18T03:03:00,axn,26.18
2024-03-18T03:04:00,axn,26.46
2024-03-18T03:05:00,axn,26.08
2024-03-18T03:06:00,axn,25.87
2024-03-18T03:07:00,axn,25.99
2024-03-18T03:08:00,axn,25.83
2024-03-18T03:09:00,axn,25.96
2024-03-18T03:10:00,axn,25.87
2024-03-18T03:11:00,axn,25.92
2024-03-18T03:12:00,axn,26.02
2024-03-18T03:13:00,axn,26.26
2024-03-18T03:14:00,axn,25.99
2024-03-18T03:15:00,axn,26.39
2024-03-18T03:16:00,axn,25.98
2024-03-18T03:17:00,axn,26.16
2024-03-18T03:18:00,axn,25.97
2024-03-18T03:19:00,axn,26.28
2024-03-18T03:20:00,axn,26.22
2024-03-18T03:21:00,axn,26.30
2024-03-18T03:22:00,axn,26.13
2024-03-18T03:23:00,axn,26.23
2024-03-18T03:24:00,axn,26.90
2024-03-18T03:25:00,axn,26.11
2024-03-18T03:26:00,axn,26.05
2024-03-18T03:27:00,axn,40.85
2024-03-18T03:28:00,axn,46.76
2024-03-18T03:29:00,axn,46.48
2024-03-18T03:30:00,axn,46.33
2024-03-18T03:31:00,axn,40.17
2024-03-18T03:32:00,axn,40.15
2024-03-18T03:33:00,axn,25.87
2024-03-18T03:34:00,axn,26.05
2024-03-18T03:35:00,axn,26.18
2024-03-18T03:36:00,axn,26.59
2024-03-18T03:37:00,axn,26.14
2024-03-18T03:38:00,axn,25.99
2024-03-18T03:39:00,axn,25.93
2024-03-18T03:40:00,axn,26.01
2024-03-18T03:41:00,axn,25.97
2024-03-18T03:42:00,axn,26.15
2024-03-18T03:43:00,axn,25.94
2024-03-18T03:44:00,axn,26.63
2024-03-18T03:45:00,axn,26.32
2024-03-18T03:46:00,axn,26.24
2024-03-18T03:47:00,axn,26.05
2024-03-18T03:48:00,axn,26.23
2024-03-18T03:49:00,axn,25.97
2024-03-18T03:50:00,axn,25.89
2024-03-18T03:51:00,axn,25.95
2024-03-18T03:52:00,axn,26.05
2024-03-18T03:53:00,axn,25.77
2024-03-18T03:54:00,axn,25.86
2024-03-18T03:55:00,axn,26.74
2024-03-18T03:56:00,axn,25.70
2024-03-18T03:57:00,axn,25.62
2024-03-18T03:58:00,axn,25.71
2024-03-18T03:59:00,axn,25.58
2024-03-18T04:00:00,axn,26.70
2024-03-18T04:01:00,axn,26.00
2024-03-18T04:02:00,axn,25.61
2024-03-18T04:03:00,axn,25.52
2024-03-18T04:04:00,axn,25.71
2024-03-18T04:05:00,axn,25.93
2024-03-18T04:06:00,axn,25.64
2024-03-18T04:07:00,axn,25.71
2024-03-18T04:08:00,axn,42.32
2024-03-18T04:09:00,axn,25.63
2024-03-18T04:10:00,axn,25.60
2024-03-18T04:11:00,axn,25.44
2024-03-18T04:12:00,axn,25.36
2024-03-18T04:13:00,axn,25.67
2024-03-18T04:14:00,axn,25.61
2024-03-18T04:15:00,axn,25.45
2024-03-18T04:16:00,axn,25.39
2024-03-18T04:17:00,axn,25.41
2024-03-18T04:18:00,axn,25.43
2024-03-18T04:19:00,axn,25.71
2024-03-18T04:20:00,axn,25.51
2024-03-18T04:21:00,axn,25.47
2024-03-18T04:22:00,axn,25.52
2024-03-18T04:23:00,axn,25.47
2024-03-18T04:24:00,axn,25.51
2024-03-18T04:25:00,axn,25.59
2024-03-18T04:26:00,axn,25.42
2024-03-18T04:27:00,axn,25.57
2024-03-18T04:28:00,axn,25.64
2024-03-18T04:29:00,axn,25.44
2024-03-18T04:30:00,axn,25.34
2024-03-18T04:31:00,axn,25.82
2024-03-18T04:32:00,axn,30.30
2024-03-18T04:33:00,axn,30.99
2024-03-18T04:34:00,axn,30.90
2024-03-18T04:35:00,axn,30.83
2024-03-18T04:36:00,axn,27.70
2024-03-18T04:37:00,axn,26.15
2024-03-18T04:38:00,axn,26.99
2024-03-18T04:39:00,axn,26.30
2024-03-18T04:40:00,axn,26.82
2024-03-18T04:41:00,axn,26.65
2024-03-18T04:42:00,axn,27.45
2024-03-18T04:43:00,axn,29.40
2024-03-18T04:44:00,axn,26.41
2024-03-18T04:45:00,axn,26.69
2024-03-18T04:46:00,axn,25.75
2024-03-18T04:47:00,axn,26.74
2024-03-18T04:48:00,axn,26.87
2024-03-18T04:49:00,axn,26.97
2024-03-18T04:50:00,axn,37.46
2024-03-18T04:51:00,axn,37.19
2024-03-18T04:52:00,axn,37.16
2024-03-18T04:53:00,axn,36.98
2024-03-18T04:54:00,axn,27.24
2024-03-18T04:55:00,axn,27.03
2024-03-18T04:56:00,axn,27.00
2024-03-18T04:57:00,axn,27.04
2024-03-18T04:58:00,axn,27.12
2024-03-18T04:59:00,axn,27.18
2024-03-18T05:00:00,axn,27.00
2024-03-18T05:01:00,axn,28.24
2024-03-18T05:02:00,axn,35.53
2024-03-18T05:03:00,axn,38.57
2024-03-18T05:04:00,axn,38.37
2024-03-18T05:05:00,axn,38.20
2024-03-18T05:06:00,axn,37.03
2024-03-18T05:07:00,axn,37.97
2024-03-18T05:08:00,axn,37.91
2024-03-18T05:09:00,axn,33.37
2024-03-18T05:10:00,axn,33.27
2024-03-18T05:11:00,axn,32.84
2024-03-18T05:12:00,axn,32.50
2024-03-18T05:13:00,axn,33.28
2024-03-18T05:14:00,axn,33.01
2024-03-18T05:15:00,axn,32.83
2024-03-18T05:16:00,axn,32.90
2024-03-18T05:17:00,axn,33.54
2024-03-18T05:18:00,axn,33.57
2024-03-18T05:19:00,axn,33.55
2024-03-18T05:20:00,axn,33.33
2024-03-18T05:21:00,axn,33.58
2024-03-18T05:22:00,axn,33.71
2024-03-18T05:23:00,axn,35.21
2024-03-18T05:24:00,axn,39.84
2024-03-18T05:25:00,axn,40.12
2024-03-18T05:26:00,axn,35.90
2024-03-18T05:27:00,axn,36.41
2024-03-18T05:28:00,axn,36.00
2024-03-18T05:29:00,axn,36.10
2024-03-18T05:30:00,axn,36.70
2024-03-18T05:31:00,axn,36.86
2024-03-18T05:32:00,axn,37.31
2024-03-18T05:33:00,axn,44.05
2024-03-18T05:34:00,axn,43.90
2024-03-18T05:35:00,axn,44.28
2024-03-18T05:36:00,axn,38.43
2024-03-18T05:37:00,axn,38.62
2024-03-18T05:38:00,axn,38.76
2024-03-18T05:39:00,axn,38.48
2024-03-18T05:40:00,axn,39.33
2024-03-18T05:41:00,axn,39.77
2024-03-18T05:42:00,axn,39.78
2024-03-18T05:43:00,axn,39.07
2024-03-18T05:44:00,axn,38.60
2024-03-18T05:45:00,axn,37.96
2024-03-18T05:46:00,axn,37.38
2024-03-18T05:47:00,axn,37.04
2024-03-18T05:48:00,axn,37.41
2024-03-18T05:49:00,axn,38.63
2024-03-18T05:50:00,axn,38.42
2024-03-18T05:51:00,axn,37.49
2024-03-18T05:52:00,axn,42.45
2024-03-18T05:53:00,axn,42.96
2024-03-18T05:54:00,axn,38.82
2024-03-18T05:55:00,axn,37.00
2024-03-18T05:56:00,axn,36.57
2024-03-18T05:57:00,axn,36.08
2024-03-18T05:58:00,axn,35.89
2024-03-18T05:59:00,axn,35.61
2024-03-18T06:00:00,axn,35.70
2024-03-18T06:01:00,axn,36.59
2024-03-18T06:02:00,axn,36.26
2024-03-18T06:03:00,axn,35.63
2024-03-18T06:04:00,axn,36.06
2024-03-18T06:05:00,axn,36.94
2024-03-18T06:06:00,axn,36.71
2024-03-18T06:07:00,axn,36.34
2024-03-18T06:08:00,axn,36.07
2024-03-18T06:09:00,axn,35.49
2024-03-18T06:10:00,axn,35.94
2024-03-18T06:11:00,axn,35.67
2024-03-18T06:12:00,axn,35.85
2024-03-18T06:13:00,axn,36.61
2024-03-18T06:14:00,axn,35.91
2024-03-18T06:15:00,axn,35.87
2024-03-18T06:16:00,axn,35.77
2024-03-18T06:17:00,axn,34.40
2024-03-18T06:18:00,axn,34.31
2024-03-18T06:19:00,axn,34.37
2024-03-18T06:20:00,axn,34.35
2024-03-18T06:21:00,axn,33.77
2024-03-18T06:22:00,axn,33.48
2024-03-18T06:23:00,axn,38.37
2024-03-18T06:24:00,axn,33.94
2024-03-18T06:25:00,axn,34.69
2024-03-18T06:26:00,axn,34.30
2024-03-18T06:27:00,axn,34.31
2024-03-18T06:28:00,axn,34.09
2024-03-18T06:29:00,axn,34.66
2024-03-18T06:30:00,axn,34.85
2024-03-18T06:31:00,axn,34.79
2024-03-18T06:32:00,axn,34.94
2024-03-18T06:33:00,axn,34.78
2024-03-18T06:34:00,axn,34.90
2024-03-18T06:35:00,axn,34.08
2024-03-18T06:36:00,axn,34.67
2024-03-18T06:37:00,axn,34.75
2024-03-18T06:38:00,axn,34.90
2024-03-18T06:39:00,axn,34.98
2024-03-18T06:40:00,axn,35.35
2024-03-18T06:41:00,axn,35.29
2024-03-18T06:42:00,axn,35.44
2024-03-18T06:43:00,axn,34.94
2024-03-18T06:44:00,axn,34.62
2024-03-18T06:45:00,axn,34.40
2024-03-18T06:46:00,axn,34.33
2024-03-18T06:47:00,axn,34.06
2024-03-18T06:48:00,axn,34.44
2024-03-18T06:49:00,axn,34.84
2024-03-18T06:50:00,axn,34.70
2024-03-18T06:51:00,axn,34.29
2024-03-18T06:52:00,axn,34.28
2024-03-18T06:53:00,axn,35.03
2024-03-18T06:54:00,axn,39.64
2024-03-18T06:55:00,axn,34.08
2024-03-18T06:56:00,axn,58.07
2024-03-18T06:57:00,axn,33.45
2024-03-18T06:58:00,axn,33.54
2024-03-18T06:59:00,axn,33.06
2024-03-18T07:00:00,axn,32.68
2024-03-18T07:01:00,axn,32.51
2024-03-18T07:02:00,axn,33.59
2024-03-18T07:03:00,axn,33.92
2024-03-18T07:04:00,axn,32.86
2024-03-18T07:05:00,axn,33.95
2024-03-18T07:06:00,axn,34.61
2024-03-18T07:07:00,axn,33.75
2024-03-18T07:08:00,axn,33.51
2024-03-18T07:09:00,axn,33.46
2024-03-18T07:10:00,axn,33.58
2024-03-18T07:11:00,axn,33.45
2024-03-18T07:12:00,axn,33.90
2024-03-18T07:13:00,axn,34.96
2024-03-18T07:14:00,axn,35.02
2024-03-18T07:15:00,axn,34.75
2024-03-18T07:16:00,axn,34.75
2024-03-18T07:17:00,axn,34.68
2024-03-18T07:18:00,axn,56.44
2024-03-18T07:19:00,axn,35.12
2024-03-18T07:20:00,axn,49.95
2024-03-18T07:21:00,axn,49.67
2024-03-18T07:22:00,axn,49.04
2024-03-18T07:23:00,axn,49.50
2024-03-18T07:24:00,axn,52.39
2024-03-18T07:25:00,axn,38.87
2024-03-18T07:26:00,axn,34.37
2024-03-18T07:27:00,axn,34.68
2024-03-18T07:28:00,axn,34.88
2024-03-18T07:29:00,axn,38.18
2024-03-18T07:30:00,axn,37.99
2024-03-18T07:31:00,axn,35.20
2024-03-18T07:32:00,axn,37.53
2024-03-18T07:33:00,axn,35.21
2024-03-18T07:34:00,axn,35.94
2024-03-18T07:35:00,axn,36.68
2024-03-18T07:36:00,axn,35.76
2024-03-18T07:37:00,axn,37.66
2024-03-18T07:38:00,axn,38.78
2024-03-18T07:39:00,axn,38.27
2024-03-18T07:40:00,axn,37.85
2024-03-18T07:41:00,axn,35.89
2024-03-18T07:42:00,axn,38.38
2024-03-18T07:43:00,axn,35.82
2024-03-18T07:44:00,axn,38.36
2024-03-18T07:45:00,axn,38.48
2024-03-18T07:46:00,axn,37.07
2024-03-18T07:47:00,axn,37.36
2024-03-18T07:48:00,axn,37.22
2024-03-18T07:49:00,axn,35.25
2024-03-18T07:50:00,axn,35.28
2024-03-18T07:51:00,axn,36.02
2024-03-18T07:52:00,axn,38.64
2024-03-18T07:53:00,axn,37.53
2024-03-18T07:54:00,axn,41.94
2024-03-18T07:55:00,axn,42.77
2024-03-18T07:56:00,axn,35.93
2024-03-18T07:57:00,axn,36.04
2024-03-18T07:58:00,axn,37.74
2024-03-18T07:59:00,axn,36.02
2024-03-18T08:00:00,axn,37.51
2024-03-18T08:01:00,axn,38.74
2024-03-18T08:02:00,axn,42.38
2024-03-18T08:03:00,axn,41.28
2024-03-18T08:04:00,axn,42.28
2024-03-18T08:05:00,axn,43.80
2024-03-18T08:06:00,axn,40.88
2024-03-18T08:07:00,axn,49.13
2024-03-18T08:08:00,axn,46.78
2024-03-18T08:09:00,axn,46.50
2024-03-18T08:10:00,axn,47.06
2024-03-18T08:11:00,axn,41.93
2024-03-18T08:12:00,axn,41.25
2024-03-18T08:13:00,axn,41.78
2024-03-18T08:14:00,axn,44.04
2024-03-18T08:15:00,axn,41.58
2024-03-18T08:16:00,axn,41.84
2024-03-18T08:17:00,axn,40.84
2024-03-18T08:18:00,axn,40.97
2024-03-18T08:19:00,axn,41.59
2024-03-18T08:20:00,axn,40.74
2024-03-18T08:21:00,axn,40.87
2024-03-18T08:22:00,axn,40.62
2024-03-18T08:23:00,axn,40.63
2024-03-18T08:24:00,axn,40.61
2024-03-18T08:25:00,axn,45.23
2024-03-18T08:26:00,axn,40.98
2024-03-18T08:27:00,axn,42.44
2024-03-18T08:28:00,axn,40.99
2024-03-18T08:29:00,axn,40.74
2024-03-18T08:30:00,axn,42.44
2024-03-18T08:31:00,axn,43.04
2024-03-18T08:32:00,axn,42.95
2024-03-18T08:33:00,axn,40.59
2024-03-18T08:34:00,axn,41.15
2024-03-18T08:35:00,axn,41.34
2024-03-18T08:36:00,axn,43.70
2024-03-18T08:37:00,axn,43.91
2024-03-18T08:38:00,axn,41.30
2024-03-18T08:39:00,axn,43.41
2024-03-18T08:40:00,axn,43.25
2024-03-18T08:41:00,axn,44.45
2024-03-18T08:42:00,axn,41.09
2024-03-18T08:43:00,axn,43.28
2024-03-18T08:44:00,axn,41.49
2024-03-18T08:45:00,axn,43.26
2024-03-18T08:46:00,axn,43.30
2024-03-18T08:47:00,axn,41.59
2024-03-18T08:48:00,axn,42.31
2024-03-18T08:49:00,axn,43.55
2024-03-18T08:50:00,axn,41.53
2024-03-18T08:51:00,axn,43.55
2024-03-18T08:52:00,axn,43.47
2024-03-18T08:53:00,axn,43.69
2024-03-18T08:54:00,axn,41.62
2024-03-18T08:55:00,axn,48.44
2024-03-18T08:56:00,axn,46.94
2024-03-18T08:57:00,axn,43.67
2024-03-18T08:58:00,axn,42.52
2024-03-18T08:59:00,axn,56.89
2024-03-18T09:00:00,axn,42.78
2024-03-18T09:01:00,axn,41.91
2024-03-18T09:02:00,axn,41.73
2024-03-18T09:03:00,axn,43.80
2024-03-18T09:04:00,axn,40.89
2024-03-18T09:05:00,axn,43.98
2024-03-18T09:06:00,axn,43.99
2024-03-18T09:07:00,axn,41.42
2024-03-18T09:08:00,axn,42.56
2024-03-18T09:09:00,axn,44.80
2024-03-18T09:10:00,axn,41.68
2024-03-18T09:11:00,axn,46.43
2024-03-18T09:12:00,axn,43.45
2024-03-18T09:13:00,axn,44.41
2024-03-18T09:14:00,axn,41.47
2024-03-18T09:15:00,axn,41.71
2024-03-18T09:16:00,axn,43.59
2024-03-18T09:17:00,axn,43.79
2024-03-18T09:18:00,axn,44.85
2024-03-18T09:19:00,axn,42.02
2024-03-18T09:20:00,axn,42.08
2024-03-18T09:21:00,axn,43.65
2024-03-18T09:22:00,axn,43.60
2024-03-18T09:23:00,axn,41.46
2024-03-18T09:24:00,axn,41.50
2024-03-18T09:25:00,axn,48.40
2024-03-18T09:26:00,axn,41.79
2024-03-18T09:27:00,axn,43.88
2024-03-18T09:28:00,axn,44.67
2024-03-18T09:29:00,axn,43.89
2024-03-18T09:30:00,axn,42.88
2024-03-18T09:31:00,axn,43.27
2024-03-18T09:32:00,axn,43.89
2024-03-18T09:33:00,axn,40.89
2024-03-18T09:34:00,axn,42.27
2024-03-18T09:35:00,axn,44.06
2024-03-18T09:36:00,axn,44.06
2024-03-18T09:37:00,axn,43.09
2024-03-18T09:38:00,axn,40.80
2024-03-18T09:39:00,axn,43.04
2024-03-18T09:40:00,axn,44.51
2024-03-18T09:41:00,axn,41.22
2024-03-18T09:42:00,axn,43.38
2024-03-18T09:43:00,axn,44.44
2024-03-18T09:44:00,axn,44.34
2024-03-18T09:45:00,axn,41.87
2024-03-18T09:46:00,axn,41.46
2024-03-18T09:47:00,axn,43.55
2024-03-18T09:48:00,axn,43.61
2024-03-18T09:49:00,axn,42.75
2024-03-18T09:50:00,axn,43.50
2024-03-18T09:51:00,axn,43.64
2024-03-18T09:52:00,axn,43.44
2024-03-18T09:53:00,axn,43.17
2024-03-18T09:54:00,axn,41.69
2024-03-18T09:55:00,axn,48.48
2024-03-18T09:56:00,axn,46.53
2024-03-18T09:57:00,axn,41.84
2024-03-18T09:58:00,axn,43.58
2024-03-18T09:59:00,axn,44.58
2024-03-18T10:00:00,axn,43.37
2024-03-18T10:01:00,axn,43.61
2024-03-18T10:02:00,axn,44.61
2024-03-18T10:03:00,axn,42.59
2024-03-18T10:04:00,axn,43.90
2024-03-18T10:05:00,axn,43.64
2024-03-18T10:06:00,axn,44.16
2024-03-18T10:07:00,axn,42.27
2024-03-18T10:08:00,axn,43.73
2024-03-18T10:09:00,axn,43.80
2024-03-18T10:10:00,axn,44.60
2024-03-18T10:11:00,axn,42.22
2024-03-18T10:12:00,axn,44.82
2024-03-18T10:13:00,axn,41.77
2024-03-18T10:14:00,axn,44.54
2024-03-18T10:15:00,axn,44.70
2024-03-18T10:16:00,axn,43.68
2024-03-18T10:17:00,axn,41.83
2024-03-18T10:18:00,axn,41.96
2024-03-18T10:19:00,axn,42.03
2024-03-18T10:20:00,axn,44.12
2024-03-18T10:21:00,axn,42.50
2024-03-18T10:22:00,axn,44.15
2024-03-18T10:23:00,axn,42.33
2024-03-18T10:24:00,axn,42.03
2024-03-18T10:25:00,axn,42.56
2024-03-18T10:26:00,axn,46.31
2024-03-18T10:27:00,axn,48.08
2024-03-18T10:28:00,axn,44.94
2024-03-18T10:29:00,axn,42.29
2024-03-18T10:30:00,axn,42.55
2024-03-18T10:31:00,axn,45.27
2024-03-18T10:32:00,axn,42.26
2024-03-18T10:33:00,axn,42.53
2024-03-18T10:34:00,axn,43.70
2024-03-18T10:35:00,axn,43.10
2024-03-18T10:36:00,axn,42.28
2024-03-18T10:37:00,axn,44.71
2024-03-18T10:38:00,axn,45.08
2024-03-18T10:39:00,axn,44.31
2024-03-18T10:40:00,axn,43.40
2024-03-18T10:41:00,axn,42.66
2024-03-18T10:42:00,axn,44.59
2024-03-18T10:43:00,axn,43.42
2024-03-18T10:44:00,axn,46.14
2024-03-18T10:45:00,axn,44.68
2024-03-18T10:46:00,axn,44.60
2024-03-18T10:47:00,axn,42.36
2024-03-18T10:48:00,axn,46.39
2024-03-18T10:49:00,axn,45.91
2024-03-18T10:50:00,axn,45.84
2024-03-18T10:51:00,axn,43.25
2024-03-18T10:52:00,axn,56.27
2024-03-18T10:53:00,axn,43.13
2024-03-18T10:54:00,axn,54.17
2024-03-18T10:55:00,axn,55.52
2024-03-18T10:56:00,axn,59.90
2024-03-18T10:57:00,axn,59.58
2024-03-18T10:58:00,axn,53.59
2024-03-18T10:59:00,axn,43.19
2024-03-18T11:00:00,axn,43.38
2024-03-18T11:01:00,axn,45.58
2024-03-18T11:02:00,axn,43.02
2024-03-18T11:03:00,axn,43.22
2024-03-18T11:04:00,axn,43.02
2024-03-18T11:05:00,axn,42.92
2024-03-18T11:06:00,axn,45.10
2024-03-18T11:07:00,axn,43.05
2024-03-18T11:08:00,axn,45.10
2024-03-18T11:09:00,axn,43.59
2024-03-18T11:10:00,axn,43.34
2024-03-18T11:11:00,axn,57.75
2024-03-18T11:12:00,axn,58.24
2024-03-18T11:13:00,axn,59.27
2024-03-18T11:14:00,axn,58.77
2024-03-18T11:15:00,axn,59.16
2024-03-18T11:16:00,axn,58.74
2024-03-18T11:17:00,axn,57.08
2024-03-18T11:18:00,axn,44.95
2024-03-18T11:19:00,axn,46.12
2024-03-18T11:20:00,axn,45.39
2024-03-18T11:21:00,axn,45.43
2024-03-18T11:22:00,axn,43.16
2024-03-18T11:23:00,axn,44.84
2024-03-18T11:24:00,axn,43.51
2024-03-18T11:25:00,axn,50.65
2024-03-18T11:26:00,axn,48.47
2024-03-18T11:27:00,axn,44.81
2024-03-18T11:28:00,axn,42.98
2024-03-18T11:29:00,axn,45.19
2024-03-18T11:30:00,axn,45.14
2024-03-18T11:31:00,axn,42.66
2024-03-18T11:32:00,axn,43.99
2024-03-18T11:33:00,axn,46.00
2024-03-18T11:34:00,axn,46.09
2024-03-18T11:35:00,axn,56.35
2024-03-18T11:36:00,axn,45.13
2024-03-18T11:37:00,axn,44.43
2024-03-18T11:38:00,axn,46.48
2024-03-18T11:39:00,axn,45.05
2024-03-18T11:40:00,axn,44.34
2024-03-18T11:41:00,axn,45.64
2024-03-18T11:42:00,axn,46.33
2024-03-18T11:43:00,axn,46.00
2024-03-18T11:44:00,axn,45.91
2024-03-18T11:45:00,axn,46.41
2024-03-18T11:46:00,axn,45.75
2024-03-18T11:47:00,axn,45.17
2024-03-18T11:48:00,axn,45.07
2024-03-18T11:49:00,axn,45.31
2024-03-18T11:50:00,axn,45.39
2024-03-18T11:51:00,axn,44.95
2024-03-18T11:52:00,axn,44.75
2024-03-18T11:53:00,axn,45.09
2024-03-18T11:54:00,axn,46.15
2024-03-18T11:55:00,axn,49.60
2024-03-18T11:56:00,axn,46.43
2024-03-18T11:57:00,axn,44.78
2024-03-18T11:58:00,axn,44.60
2024-03-18T11:59:00,axn,44.64
2024-03-18T12:00:00,axn,45.49
2024-03-18T12:01:00,axn,44.71
2024-03-18T12:02:00,axn,46.08
2024-03-18T12:03:00,axn,44.98
2024-03-18T12:04:00,axn,44.86
2024-03-18T12:05:00,axn,45.68
2024-03-18T12:06:00,axn,46.92
2024-03-18T12:07:00,axn,45.67
2024-03-18T12:08:00,axn,45.84
2024-03-18T12:09:00,axn,45.26
2024-03-18T12:10:00,axn,44.45
2024-03-18T12:11:00,axn,44.32
2024-03-18T12:12:00,axn,44.59
2024-03-18T12:13:00,axn,44.73
2024-03-18T12:14:00,axn,44.98
2024-03-18T12:15:00,axn,44.55
2024-03-18T12:16:00,axn,44.46
2024-03-18T12:17:00,axn,44.71
2024-03-18T12:18:00,axn,44.52
2024-03-18T12:19:00,axn,44.72
2024-03-18T12:20:00,axn,44.73
2024-03-18T12:21:00,axn,44.66
2024-03-18T12:22:00,axn,47.30
2024-03-18T12:23:00,axn,44.34
2024-03-18T12:24:00,axn,44.31
2024-03-18T12:25:00,axn,48.75
2024-03-18T12:26:00,axn,45.43
2024-03-18T12:27:00,axn,44.26
2024-03-18T12:28:00,axn,44.22
2024-03-18T12:29:00,axn,44.34
2024-03-18T12:30:00,axn,44.64
2024-03-18T12:31:00,axn,44.32
2024-03-18T12:32:00,axn,44.07
2024-03-18T12:33:00,axn,44.05
2024-03-18T12:34:00,axn,43.95
2024-03-18T12:35:00,axn,44.34
2024-03-18T12:36:00,axn,44.11
2024-03-18T12:37:00,axn,44.06
2024-03-18T12:38:00,axn,43.73
2024-03-18T12:39:00,axn,43.86
2024-03-18T12:40:00,axn,43.11
2024-03-18T12:41:00,axn,43.34
2024-03-18T12:42:00,axn,43.33
2024-03-18T12:43:00,axn,43.49
2024-03-18T12:44:00,axn,43.29
2024-03-18T12:45:00,axn,60.53
2024-03-18T12:46:00,axn,43.58
2024-03-18T12:47:00,axn,43.08
2024-03-18T12:48:00,axn,43.40
2024-03-18T12:49:00,axn,43.01
2024-03-18T12:50:00,axn,42.88
2024-03-18T12:51:00,axn,43.25
2024-03-18T12:52:00,axn,47.39
2024-03-18T12:53:00,axn,47.50
2024-03-18T12:54:00,axn,43.12
2024-03-18T12:55:00,axn,43.19
2024-03-18T12:56:00,axn,43.21
2024-03-18T12:57:00,axn,43.13
2024-03-18T12:58:00,axn,43.00
2024-03-18T12:59:00,axn,43.28
2024-03-18T13:00:00,axn,42.96
2024-03-18T13:01:00,axn,43.77
2024-03-18T13:02:00,axn,42.94
2024-03-18T13:03:00,axn,43.15
2024-03-18T13:04:00,axn,43.03
2024-03-18T13:05:00,axn,43.13
2024-03-18T13:06:00,axn,42.93
2024-03-18T13:07:00,axn,43.04
2024-03-18T13:08:00,axn,43.27
2024-03-18T13:09:00,axn,43.01
2024-03-18T13:10:00,axn,43.12
2024-03-18T13:11:00,axn,42.74
2024-03-18T13:12:00,axn,42.64
2024-03-18T13:13:00,axn,42.80
2024-03-18T13:14:00,axn,42.47
2024-03-18T13:15:00,axn,43.13
2024-03-18T13:16:00,axn,42.67
2024-03-18T13:17:00,axn,43.16
2024-03-18T13:18:00,axn,43.31